Location: Kirtland Hills
(41.6239°N, 81.3071°W)
Time: 08:34:14
(UTC+00:00)

Cosmos 44 Rocket - Pass Details

Date: 29 October 2020
Orbit: 642 x 748 km, 65.1° (Epoch: 29 November)

Event Time Altitude Azimuth Distance (km) Brightness Sun altitude
Rises 23:06:06 0° 180° (S) 2,964 6.7 -8.6°
Reaches altitude 10° 23:08:38 10° 168° (SSE) 2,072 5.7 -9.1°
Maximum altitude 23:12:34 27° 112° (ESE) 1,298 4.2 -9.8°
Enters shadow 23:16:14 12° 58° (ENE) 2,022 5.1 -10.5°
